STARLINK-32951, 63562

Orbit data source: Space-Track

STARLINK-32951, 63562 is a payload satellite owned by SpaceX/Seattle (US) in LEO that was launched on Sun, 13 Apr 2025 UTC via an FALCON 9 launch vehicle from the Air Force Eastern Test Range (AFETR). Payload-class satellites include a variety of spacecraft equipped with specific instruments for various scientific and technological missions. These include communications satellites like Starlink; space stations such as the ISS; scientific satellites like the Hubble; Earth observation satellites from companies like Planet Labs, Umbra, and HawkEye 360; GPS; miniature CubeSats for education and research; and military/defense satellites.

Loading next visibility...
Identifier
63562, 2025-075Q
Orbit
LEO
Last TLE update
3 hours ago
Origin
Manufacturer
SpaceX/Seattle
Mission
Operational spacecraft
Bus & Motor
STARLINK V2M, Unknown motor
Mass
730 kg wet, ~700 kg dry
Launch date (UTC)
2025-04-13 (3 weeks ago)
Launch vehicle
FALCON 9
Launch site
Air Force Eastern Test Range (AFETR)
Object type
Payload
Rocket body
Debris
Shape & HBR
Unknown
Radar Cross Section
Large (>1 m²)

Expand to show TLE details & history

TLE from 3 hours ago
0 STARLINK-32951
1 63562U 25075Q   25126.25002315 -.01485331  00000-0 -24793-1 0  9998
2 63562  42.9994 209.8475 0001384 274.4287 100.1131 15.54339739  4871
Epoch: 2025-05-06T06:00Z
Definitive object data (Epoch: 2025-05-06T06:00:02Z)
Latitude
9.87258°
Longitude
-93.81714°
Altitude
403.266 km
Speed
7.671 km/s
True Right ascension
14h 42m 10s
True Declination
9° 48' 42"
Sunlit
Object was in full shadow at TLE epoch
Visualization TLE readout
Latitude
-0.34821°
Longitude
-105.62441°
Altitude
405.031 km
Speed
7.67 km/s
Apparent Right ascension
10h 50m 09s
Apparent Declination
-40° 07' 47"
Sunlit
Object is in full shadow
Visualization observer readout
Local Sidereal Time
16:58:42
Azimuth
238.074° WSW
Elevation
-25.811°
Doppler factor
1
Orbital elements
Apogee altitude
406.979 km
Perigee altitude
405.102 km
Semi-major axis
6,784.177 km
Eccentricity
0.0001384
Inclination
42.9994°
RAAN
209.8475°
Arg. of periapsis
274.4287°
True anomaly
100.12871°
Mean anomaly
100.1131°
Eccentric anomaly
100.12091°
Mean motion
3.88416 °/min
BSTAR
-0.024793
Orbital period
92.68 mins
Loading maneuver chart data...
Loading SW <> Apogee altitude chart data...
Loading historical data...
Loading historical data...
Loading historical data...
Loading historical data...
Loading historical data...
Loading historical data...
Loading historical data...

STARLINK-32951 Visibility forecast

Observer location: undefined°, undefined°

Span
Click to sort rows by Start time (UTC) header in descending order
Start Az.
Max El. time (UTC)
Max El. Az.
Max El.
End time (UTC)
End Az.
5 mins2025-05-06 09:14:16.350Z219.362° SW2025-05-06 09:17:16.350Z131.067° SE31.03°2025-05-06 09:19:16.350Z86.609° E
4 mins2025-05-06 10:52:16.350Z276.038° WNW2025-05-06 10:54:16.350Z15.209° NNE39.715°2025-05-06 10:56:16.350Z65.711° ENE
4 mins2025-05-06 12:30:16.350Z308.259° NW2025-05-06 12:31:16.350Z351.55° N37.248°2025-05-06 12:34:16.350Z82.195° E
4 mins2025-05-06 14:07:16.350Z274.029° WNW2025-05-06 14:09:16.350Z160.127° S38.014°2025-05-06 14:11:16.350Z125.69° SE
4 mins2025-05-07 08:24:16.350Z185.262° SSW2025-05-07 08:25:16.350Z157.393° SSE23.879°2025-05-07 08:28:16.350Z90.347° ESE
|